Terminal Aerodrome Forecast
Issued by NWS Melbourne, FL

Home | Current Version | Previous Version | Text Only | Print | Product List | Glossary On
Versions: 1 2 3 4 5 6 7 8 9 10 11 12 13 14 15 16 17 18 19 20 21 22 23 24 25 26
000
FTUS42 KMLB 301125
TAFMCO
TAF
KMCO 301125Z 3012/3112 01003KT P6SM VCSH SCT025 SCT050
     FM301500 08007KT P6SM VCSH SCT030
     FM301800 08010KT P6SM VCSH SCT035
      TEMPO 3018/3021 -SHRA BKN035
     FM310100 09006KT P6SM SCT035 SCT060 BKN250
     FM310600 09003KT P6SM SCT030=

USA.gov is the U.S. government's official web portal to all federal, state and local government web resources and services.